Location: Rounton
(54.4000°N, 1.3500°W)
Time: 20:11:40
(UTC+00:00)

A-11 Canister half - Pass Details

Date: 30 November 2021
Orbit: 1516 x 1684 km, 47.2° (Epoch: 19 January)

Event Time Altitude Azimuth Distance (km) Brightness Sun altitude
Rises 14:56:46 0° 285° (WNW) 4,921 12.0 4.4°
Reaches altitude 10° 15:00:46 10° 272° (W) 3,943 11.8 4.0°
Maximum altitude 15:08:02 23° 226° (SW) 3,028 12.2 3.3°
Drops below altitude 10° 15:15:19 10° 179° (S) 3,931 11.9 2.5°
Sets 15:19:19 0° 166° (SSE) 4,902 12.1 2.1°
